Location: Casone le Fosse
(44.6547°N, 12.1103°E)
Time: 03:14:20
(UTC+00:00)

GEOS 3 Rocket - Pass Details

Date: 29 October 2020
Orbit: 770 x 850 km, 115.0° (Epoch: 01 December)

Event Time Altitude Azimuth Distance (km) Brightness Sun altitude
Exits shadow 18:17:19 60° 80° (E) 952 3.6 -24.2°
Maximum altitude 18:17:52 65° 47° (NE) 923 3.6 -24.3°
Drops below altitude 10° 18:23:12 10° 327° (NNW) 2,475 6.6 -25.2°
Sets 18:25:34 0° 325° (NW) 3,419 7.4 -25.6°
